This demonstration page uses our WeatherBlox Daily Observations layout. Learn more.

Left ArrowRight Arrow

Hourly Observations for June 17, 2018

Temp ( °F °C ) Dew Point ( °F °C ) Humidity (%) Winds ( mph kmh ) Pressure ( in mb ) Visibility ( mi km ) Precip ( " mm )
1:57 am 01:57 Clear 79 26.1 67 19.4 67 67 S 17 28 29.71 1006 10 16 0.00 0.00
2:57 am 02:57 Clear 78 25.6 67 19.4 69 69 S 16 26 29.70 1006 10 16 0.00 0.00
4:57 am 04:57 Clear 76 24.4 62 16.7 62 62 SSW 13 20 29.74 1007 10 16 0.00 0.00
5:57 am 05:57 Clear 74 23.3 63 17.2 69 69 S 10 17 29.76 1008 10 16 0.00 0.00
6:57 am 06:57 Sunny 73 22.8 64 17.8 74 74 SSE 6 9 29.77 1008 10 16 0.00 0.00
7:57 am 07:57 Sunny 73 22.8 64 17.8 74 74 SSE 12 19 29.79 1009 10 16 0.00 0.00
8:57 am 08:57 Cloudy 74 23.3 65 18.3 74 74 SSE 13 20 29.80 1009 10 16 0.00 0.00
9:57 am 09:57 Partly Cloudy 80 26.7 67 19.4 64 64 SSE 14 22 29.80 1009 10 16 0.00 0.00
10:57 am 10:57 Cloudy 81 27.2 67 19.4 62 62 S 20 31 29.80 1009 10 16 0.00 0.00
11:57 am 11:57 Cloudy 82 27.8 68 20 63 63 S 18 30 29.79 1009 10 16 0.00 0.00
12:57 pm 12:57 Mostly Cloudy 88 31.1 69 20.6 54 54 S 22 35 29.77 1008 10 16 0.00 0.00
1:57 pm 13:57 Mostly Cloudy 90 32.2 69 20.6 50 50 S 25 41 29.76 1008 10 16 0.00 0.00
2:57 pm 14:57 Sunny 92 33.3 66 18.9 43 43 SSW 23 37 29.76 1008 10 16 0.00 0.00
3:57 pm 15:57 Sunny 91 32.8 65 18.3 42 42 S 22 35 29.75 1007 10 16 0.00 0.00
6:57 pm 18:57 Mostly Cloudy 88 31.1 69 20.6 54 54 SSE 24 39 29.74 1007 10 16 0.00 0.00
7:57 pm 19:57 Mostly Cloudy 87 30.6 68 20 53 53 S 18 30 29.76 1008 10 16 0.00 0.00
8:57 pm 20:57 Mostly Sunny 83 28.3 68 20 61 61 SSE 15 24 29.76 1008 10 16 0.00 0.00
9:57 pm 21:57 Clear 80 26.7 68 20 67 67 S 20 31 29.78 1009 10 16 0.00 0.00
10:57 pm 22:57 Clear 79 26.1 67 19.4 67 67 S 12 19 29.79 1009 10 16 0.00 0.00
11:57 pm 23:57 Clear 79 26.1 65 18.3 62 62 SSW 12 19 29.82 1010 10 16 0.00 0.00

Powered by AerisWeather